This is the latest recevied weather packets stored in our database for station/object KN6WGU. If no packets are shown the sender has not sent any weather packets the latest 10 day(s).
| Time | Temp. | Humidity | Pressure | Rain* | Wind** | Luminosity | Snow |
|---|---|---|---|---|---|---|---|
| 1787466121 | 20° C | 72% | 1003.8 hPa | 0 mm | - | 0 W/m² | - |
| 1787465817 | 20° C | 71% | 1004.1 hPa | 0 mm | - | 0 W/m² | - |
| 1787465512 | 20° C | 71% | 1004 hPa | 0 mm | - | 0 W/m² | - |
| 1787465207 | 20° C | 76% | 1004 hPa | 0 mm | - | 0 W/m² | - |
| 1787464903 | 20.56° C | 79% | 1004.2 hPa | 0 mm | - | 0 W/m² | - |
| 1787464598 | 20.56° C | 78% | 1004 hPa | 0 mm | - | 0 W/m² | - |
| 1787464295 | 20.56° C | 74% | 1004.3 hPa | 0 mm | - | 0 W/m² | - |
| 1787463991 | 20° C | 77% | 1004 hPa | 0 mm | - | 0 W/m² | - |
| 1787463690 | 20° C | 83% | 1004.1 hPa | 0 mm | - | 0 W/m² | - |
| 1787463386 | 20° C | 83% | 1004 hPa | 0 mm | - | 0 W/m² | - |
| 1787463083 | 20° C | 82% | 1003.9 hPa | 0 mm | - | 0 W/m² | - |
| 1787462779 | 20.56° C | 81% | 1003.9 hPa | 0 mm | - | 0 W/m² | - |
| 1787462475 | 20.56° C | 81% | 1003.8 hPa | 0 mm | - | 0 W/m² | - |
| 1787462171 | 20° C | 82% | 1003.6 hPa | 0 mm | - | 0 W/m² | - |
| 1787461866 | 20.56° C | 83% | 1004 hPa | 0 mm | - | 0 W/m² | - |
| 1787461561 | 20.56° C | 82% | 1004 hPa | 0 mm | - | 0 W/m² | - |
| 1787461256 | 20.56° C | 81% | 1004 hPa | 0 mm | - | 0 W/m² | - |
| 1787460952 | 20.56° C | 80% | 1004 hPa | 0 mm | - | 0 W/m² | - |
| 1787460647 | 20.56° C | 77% | 1004.1 hPa | 0 mm | - | 0 W/m² | - |
| 1787460344 | 20.56° C | 78% | 1004 hPa | 0 mm | - | 0 W/m² | - |
| 1787460041 | 20.56° C | 77% | 1004.1 hPa | 0 mm | - | 0 W/m² | - |
| 1787459737 | 20.56° C | 78% | 1004.1 hPa | 0 mm | - | 0 W/m² | - |
| 1787459432 | 20.56° C | 77% | 1004.2 hPa | 0 mm | - | 0 W/m² | - |
| 1787459131 | 20.56° C | 77% | 1004.3 hPa | 0 mm | - | 0 W/m² | - |
| 1787458826 | 20.56° C | 81% | 1004.2 hPa | 0 mm | - | 0 W/m² | - |
* Rain latest hour (hover to see other rain measurements)
** Current wind speed in m/s (hover to see current wind gust speed)